Вернуться в каталог

STARLINK-36422

АктивенСвязьVLEO
NORAD 67344·PAYLOAD·🇺🇸 United States

Запущен Jan 9, 2026 с Cape Canaveral Space Force Station

Loading…

Ближайшие Пролёты (ближайшие 24 часа)

TLE

СвежийSource: CelesTrak SupGP

Эпоха: Sep 14, 2026, 23:18 UTC

1 67344C 26003L   26257.97131944  .00017516  00000+0  63442-3 0  2573
2 67344  42.9998 237.8131 0001345 267.0823 157.5069 15.27570069    19

Отслеживайте STARLINK-36422 в реальном времени с AllMySat

Download on the App Store